This demonstration page uses our WeatherBlox Daily Observations layout. Learn more.

Left ArrowRight Arrow

53.62937, 11.41316

Hourly Observations for December 26, 2018

Temp ( °F °C ) Dew Point ( °F °C ) Humidity (%) Winds ( mph kmh ) Pressure ( in mb ) Visibility ( mi km ) Precip ( " mm )
12:20 am 00:20 Mostly Cloudy 43 6 37 3 81 81 W 23 37 30.24 1024 30 48 N/A
12:38 am 00:38 Mostly Cloudy 43 6 37 3 81 81 WNW 23 37 30.24 1024 30 48 N/A
1:20 am 01:20 Mostly Cloudy 43 6 37 3 81 81 W 23 37 30.21 1023 30 48 N/A
2:20 am 02:20 Mostly Cloudy 43 6 39 4 87 87 WNW 20 31 30.24 1024 30 48 N/A
2:51 am 02:51 Mostly Cloudy 43 6 39 4 87 87 WNW 22 35 30.21 1023 30 48 N/A
3:20 am 03:20 Mostly Cloudy 43 6 39 4 87 87 WNW 18 30 30.24 1024 30 48 N/A
3:33 am 03:33 Mostly Cloudy 43 6 39 4 87 87 W 18 30 30.24 1024 30 48 N/A
4:20 am 04:20 Mostly Cloudy 43 6 39 4 87 87 W 15 24 30.21 1023 30 48 N/A
5:20 am 05:20 Mostly Cloudy 45 7 39 4 81 81 W 17 28 30.21 1023 30 48 N/A
6:10 am 06:10 Mostly Cloudy 45 7 39 4 81 81 W 15 24 30.21 1023 30 48 N/A
6:20 am 06:20 Mostly Cloudy 45 7 39 4 81 81 W 15 24 30.21 1023 30 48 N/A
7:20 am 07:20 Mostly Cloudy 45 7 39 4 81 81 W 13 20 30.24 1024 30 48 N/A
7:50 am 07:50 Mostly Cloudy with Drizzle 43 6 41 5 93 93 W 12 19 30.24 1024 2 4 N/A
8:20 am 08:20 Mostly Cloudy with Drizzle 43 6 41 5 93 93 W 10 17 30.24 1024 1 2 N/A
9:20 am 09:20 Mostly Cloudy with Drizzle 43 6 43 6 100 100 WNW 13 20 30.24 1024 2 4 N/A
9:30 am 09:30 Mostly Cloudy 43 6 43 6 100 100 WNW 12 19 30.24 1024 4 6 N/A
10:20 am 10:20 Mostly Cloudy 45 7 43 6 93 93 WNW 12 19 30.24 1024 4 7 N/A
11:20 am 11:20 Mostly Cloudy with Drizzle 45 7 43 6 93 93 WNW 14 22 30.24 1024 4 6 N/A
12:20 pm 12:20 Mostly Cloudy with Drizzle 45 7 43 6 93 93 WNW 12 19 30.24 1024 3 5 N/A
1:20 pm 13:20 Mostly Cloudy with Drizzle 45 7 43 6 93 93 WNW 13 20 30.24 1024 3 4 N/A
2:11 pm 14:11 Mostly Cloudy 45 7 43 6 93 93 W 13 20 30.24 1024 4 6 N/A
2:20 pm 14:20 Mostly Cloudy 45 7 43 6 93 93 WNW 14 22 30.24 1024 5 8 N/A
2:44 pm 14:44 Mostly Cloudy with Drizzle 45 7 43 6 93 93 WNW 14 22 30.24 1024 3 4 N/A
3:20 pm 15:20 Mostly Cloudy with Drizzle 45 7 43 6 93 93 WNW 12 19 30.24 1024 3 5 N/A
3:46 pm 15:46 Mostly Cloudy with Drizzle 45 7 43 6 93 93 WNW 13 20 30.24 1024 3 4 N/A
4:20 pm 16:20 Mostly Cloudy with Mist and Fog 45 7 45 7 100 100 WNW 9 15 30.27 1025 3 5 N/A
4:50 pm 16:50 Cloudy 45 7 45 7 100 100 W 7 11 30.27 1025 4 7 N/A
5:20 pm 17:20 Cloudy 45 7 45 7 100 100 W 13 20 30.24 1024 4 7 N/A
6:20 pm 18:20 Mostly Cloudy 46 8 45 7 93 93 W 10 17 30.24 1024 5 8 N/A
6:47 pm 18:47 Mostly Cloudy 46 8 45 7 93 93 WNW 13 20 30.24 1024 30 48 N/A
7:20 pm 19:20 Mostly Cloudy 46 8 45 7 93 93 W 14 22 30.27 1025 30 48 N/A
7:46 pm 19:46 Mostly Cloudy with Drizzle 46 8 45 7 93 93 W 12 19 30.27 1025 4 6 N/A
8:20 pm 20:20 Mostly Cloudy with Drizzle 46 8 46 8 100 100 W 10 17 30.27 1025 4 6 N/A
9:20 pm 21:20 Mostly Cloudy with Drizzle 46 8 46 8 100 100 W 13 20 30.27 1025 4 6 N/A
10:20 pm 22:20 Mostly Cloudy 46 8 45 7 93 93 W 14 22 30.24 1024 5 8 N/A
11:20 pm 23:20 Mostly Cloudy 46 8 45 7 93 93 W 12 19 30.24 1024 6 9 N/A
11:43 pm 23:43 Mostly Cloudy with Drizzle 46 8 45 7 93 93 W 14 22 30.24 1024 3 5 N/A

Powered by AerisWeather